Location: Seattle
(47.6064°N, 122.3308°W)
Time: 18:18:45
(UTC-07:00)

AO-7 - Pass Details

Date: 28 March 2023
Orbit: 1439 x 1459 km, 101.9° (Epoch: 07 June)

Event Time Altitude Azimuth Distance (km) Brightness Sun altitude
Rises 05:25:07 0° 22° (NNE) 4,569 ? -15.7°
Reaches altitude 10° 05:28:07 10° 28° (NNE) 3,584 ? -15.2°
Maximum altitude 05:36:04 46° 100° (E) 1,881 ? -14.0°
Drops below altitude 10° 05:43:55 10° 172° (S) 3,551 ? -12.7°
Sets 05:46:51 0° 178° (S) 4,523 ? -12.3°
